GW6273 Weather Reports


time (UTC)temp
F
wind
direction
speed
knots
gust
knots
rain 1hr
in
rain 24hr
in
rain mn
in
humidity
%
barometer
mb
20260906132101 78 253 0.0 1.7 0.00 0.00 0.00 87 981.1
20260906131556 78 186 0.0 1.7 0.00 0.00 0.00 89 981.0
20260906131101 77 297 0.9 0.9 0.00 0.00 0.00 89 981.2
20260906130556 77 279 0.0 0.9 0.00 0.00 0.00 92 981.3
20260906130056 76 211 0.0 0.9 0.00 0.00 0.00 92 980.9
20260906125601 76 199 0.0 0.9 0.00 0.00 0.00 97 981.3
20260906125101 75 322 0.0 0.9 0.00 0.00 0.00 98 981.2
20260906124556 74 119 0.0 1.7 0.00 0.00 0.00 98 981.0
20260906124056 74 249 0.0 0.9 0.00 0.00 0.00 98 981.3
20260906123602 74 186 0.0 0.9 0.00 0.00 0.00 99 981.1
20260906123056 74 242 0.0 0.9 0.00 0.00 0.00 99 981.0
20260906122601 72 231 1.7 1.7 0.00 0.00 0.00 99 980.8
20260906122056 72 299 0.0 0.9 0.00 0.00 0.00 99 981.0
20260906121557 72 225 0.9 1.7 0.00 0.00 0.00 99 980.7
20260906121056 71 187 0.0 1.7 0.00 0.00 0.00 99 980.8
20260906120556 71 213 0.9 1.7 0.00 0.00 0.00 99 980.9
20260906120056 71 215 0.0 0.9 0.00 0.00 0.00 99 980.7
20260906115556 71 286 0.0 1.7 0.00 0.00 0.00 99 980.7
20260906115056 71 246 0.0 1.7 0.00 0.00 0.00 99 980.5
20260906114556 71 261 1.7 1.7 0.00 0.00 0.00 99 980.8
20260906114056 71 220 0.0 1.7 0.00 0.00 0.00 99 980.5
20260906113556 71 236 1.7 1.7 0.00 0.00 0.00 99 980.8
20260906113102 71 224 0.0 0.9 0.00 0.00 0.00 99 980.9
20260906112557 71 242 0.0 0.9 0.00 0.00 0.00 99 980.8
20260906112056 71 147 0.0 0.9 0.00 0.00 0.00 99 980.6
20260906111556 71 269 0.0 1.7 0.00 0.00 0.00 99 980.9
20260906111056 71 255 0.9 1.7 0.00 0.00 0.00 99 980.7
20260906110556 71 297 0.9 1.7 0.00 0.00 0.00 99 980.8
20260906110056 71 198 0.9 0.9 0.00 0.00 0.00 99 980.5
20260906105556 71 224 0.0 0.9 0.00 0.00 0.00 99 980.5
20260906105056 71 215 0.9 1.7 0.00 0.00 0.00 99 980.5
20260906104556 71 213 0.9 1.7 0.00 0.00 0.00 99 980.7
20260906104056 71 210 0.0 0.9 0.00 0.00 0.00 99 980.5
20260906103602 71 217 0.0 1.7 0.00 0.00 0.00 99 980.6
20260906103056 71 224 0.0 0.9 0.00 0.00 0.00 99 980.4
20260906102556 71 242 0.0 1.7 0.00 0.00 0.00 99 980.6
20260906102056 71 224 0.0 0.9 0.00 0.00 0.00 99 980.6
20260906101555 71 230 0.0 1.7 0.00 0.00 0.00 99 980.6
20260906101101 71 213 0.0 1.7 0.00 0.00 0.00 99 980.5
20260906100556 71 224 0.0 0.9 0.00 0.00 0.00 99 980.5
20260906100055 71 238 0.9 0.9 0.00 0.00 0.00 99 980.5
20260906095556 71 299 0.0 0.0 0.00 0.00 0.00 99 980.6
20260906095100 71 310 0.0 0.0 0.00 0.00 0.00 99 980.5
20260906094556 71 269 0.0 1.7 0.00 0.00 0.00 99 980.5
20260906094056 71 213 0.0 0.9 0.00 0.00 0.00 99 980.4
20260906093556 71 193 0.0 0.0 0.00 0.00 0.00 99 980.4
20260906093056 71 235 0.0 0.9 0.00 0.00 0.00 99 980.4
20260906092601 71 259 0.0 0.9 0.00 0.00 0.00 99 980.5
20260906092055 71 193 0.0 0.9 0.02 0.00 0.00 99 980.4
20260906091556 71 185 0.0 0.9 0.00 0.00 0.00 99 980.5
20260906091055 71 186 0.0 0.0 0.00 0.00 0.00 99 980.4
20260906090556 71 168 0.0 0.9 0.00 0.00 0.00 99 980.2
20260906090056 71 227 0.9 1.7 0.00 0.00 0.00 99 980.3
20260906085555 71 200 0.9 0.9 0.00 0.00 0.00 99 980.3
20260906085100 71 195 0.0 0.9 0.00 0.00 0.00 99 980.1
20260906084555 71 205 0.0 0.9 0.00 0.00 0.00 99 980.2
20260906084101 71 212 0.0 0.9 0.00 0.00 0.00 99 980.0
20260906083556 71 236 0.0 0.9 0.00 0.00 0.00 99 980.0
20260906083056 71 135 0.0 0.0 0.00 0.00 0.00 99 980.0
20260906082601 71 134 0.9 0.9 0.00 0.00 0.00 99 980.1
20260906082056 71 230 0.0 0.0 0.00 0.00 0.00 99 980.0
20260906081556 71 226 0.9 0.9 0.00 0.00 0.00 99 979.9
20260906081056 71 237 0.0 1.7 0.00 0.00 0.00 99 980.1
20260906080556 71 220 0.0 0.9 0.00 0.00 0.00 99 979.9
20260906080056 71 224 0.9 0.9 0.00 0.00 0.00 99 979.9
20260906075556 71 246 0.0 1.7 0.00 0.00 0.00 99 980.2
20260906075056 71 117 0.0 0.0 0.00 0.00 0.00 99 980.3
20260906074556 71 117 0.0 0.0 0.00 0.00 0.00 99 980.2
20260906074100 71 135 0.9 0.9 0.00 0.00 0.00 99 980.1
20260906073557 71 230 0.0 0.0 0.00 0.00 0.00 99 980.1
20260906073057 71 234 0.0 0.0 0.00 0.00 0.00 99 980.1
20260906072556 71 224 0.0 0.9 0.00 0.00 0.00 99 980.2
20260906072101 71 218 0.0 1.7 0.00 0.00 0.00 99 980.2
20260906071556 71 246 0.0 1.7 0.00 0.00 0.00 99 980.3
20260906071056 71 244 0.9 1.7 0.00 0.00 0.00 99 980.2
20260906070601 71 235 0.0 1.7 0.00 0.00 0.00 99 980.2
20260906070056 71 279 1.7 1.7 0.00 0.00 0.00 99 980.3
20260906065556 71 232 0.0 1.7 0.00 0.00 0.00 99 980.2
20260906065055 71 209 0.0 0.9 0.00 0.00 0.00 99 980.4
20260906064556 71 212 0.9 1.7 0.00 0.00 0.00 99 980.5
20260906064056 71 230 0.0 0.9 0.00 0.00 0.00 99 980.5
20260906063556 71 222 0.0 0.0 0.00 0.00 0.00 99 980.4
20260906063056 71 142 0.0 0.0 0.00 0.00 0.00 99 980.4
20260906062556 71 212 0.0 0.9 0.00 0.00 0.00 99 980.4
20260906062056 71 231 0.0 0.9 0.00 0.00 0.00 98 980.3
20260906061556 71 135 0.0 0.9 0.00 0.00 0.00 99 980.5
20260906061056 71 147 0.0 0.9 0.00 0.00 0.00 99 980.7
20260906060556 72 152 0.0 0.9 0.00 0.00 0.00 98 980.7
20260906060056 71 164 0.0 0.0 0.00 0.00 0.00 98 980.7
20260906055556 71 255 0.0 0.9 0.00 0.00 0.00 98 980.7
20260906055056 71 129 0.0 0.0 0.00 0.00 0.00 98 980.6
20260906054556 71 147 0.0 0.9 0.00 0.00 0.00 98 980.6
20260906054056 72 173 0.0 0.0 0.00 0.00 0.00 98 980.6
20260906053556 72 154 0.9 1.7 0.00 0.00 0.00 98 980.6
20260906053056 72 230 0.0 0.0 0.00 0.00 0.00 98 980.6
20260906052601 72 242 0.0 0.0 0.00 0.00 0.00 98 980.6
20260906052101 72 129 0.0 0.0 0.00 0.00 0.00 98 980.6
20260906051556 72 142 0.0 0.0 0.00 0.00 0.00 98 980.7
20260906051056 72 157 0.0 0.0 0.00 0.00 0.00 98 980.8
20260906050556 72 219 0.0 0.9 0.00 0.00 0.00 98 980.7
20260906050101 72 213 0.0 1.7 0.00 0.00 0.00 98 980.5
20260906045556 72 138 0.9 1.7 0.00 0.00 0.00 98 980.7
20260906045056 72 235 0.0 0.9 0.00 0.00 0.00 98 980.7
20260906044556 72 252 0.0 0.0 0.00 0.00 0.00 98 980.9
20260906044055 72 226 0.0 0.9 0.00 0.00 0.00 98 980.8
20260906043556 72 208 0.0 0.9 0.00 0.00 0.00 98 980.7
20260906043056 72 150 1.7 1.7 0.00 0.00 0.00 98 980.8
20260906042556 72 164 0.0 0.9 0.00 0.00 0.00 98 980.6
20260906042056 72 133 0.9 1.7 0.00 0.00 0.00 98 980.6
20260906041601 72 119 0.0 1.7 0.00 0.00 0.00 98 980.6
20260906041056 72 0 0.0 0.0 0.00 0.00 0.00 98 980.8
20260906040556 72 129 0.0 1.7 0.00 0.00 0.00 98 980.8
20260906040101 72 325 0.0 0.0 0.00 0.00 0.00 98 980.5
20260906035555 72 129 0.0 0.9 0.00 0.00 0.37 98 980.6
20260906035056 72 142 0.9 1.7 0.00 0.00 0.37 98 980.5
20260906034556 72 129 0.0 0.0 0.00 0.00 0.37 98 980.4
20260906034056 72 202 0.0 0.0 0.00 0.00 0.37 98 980.6
20260906033556 72 195 0.0 0.9 0.00 0.00 0.37 98 980.7
20260906033056 72 131 0.9 1.7 0.00 0.00 0.37 98 980.6
20260906032556 72 132 0.9 1.7 0.00 0.00 0.37 98 980.8
20260906032101 72 288 0.0 1.7 0.00 0.00 0.37 98 980.9
20260906031602 72 142 0.0 1.7 0.00 0.00 0.37 98 981.0
20260906031056 72 269 0.9 1.7 0.00 0.00 0.37 98 981.1
20260906030601 72 125 1.7 3.5 0.00 0.00 0.37 97 981.1
20260906030056 72 163 0.9 1.7 0.00 0.00 0.37 97 981.3
20260906025556 72 157 0.0 0.9 0.00 0.00 0.37 97 981.2
20260906025056 72 117 0.0 1.7 0.00 0.00 0.37 97 981.5
20260906024555 72 124 0.0 0.9 0.00 0.00 0.37 97 981.4
20260906024056 72 180 0.0 0.0 0.00 0.00 0.37 97 981.4
20260906023556 72 202 0.0 0.9 0.00 0.00 0.37 97 981.4
20260906023056 72 173 0.0 0.9 0.00 0.00 0.37 97 981.2
20260906022556 72 127 0.0 0.9 0.00 0.00 0.37 97 981.2
20260906022056 72 269 0.0 0.0 0.00 0.00 0.37 97 981.3
20260906021556 72 264 0.9 1.7 0.00 0.00 0.37 97 981.2
20260906021056 72 232 0.0 1.7 0.00 0.00 0.37 97 981.3
20260906020556 72 263 1.7 1.7 0.00 0.00 0.37 97 981.2
20260906020056 72 207 1.7 2.6 0.00 0.00 0.37 97 981.3
20260906015556 72 233 0.0 1.7 0.00 0.00 0.37 97 981.4
20260906015056 72 216 1.7 1.7 0.00 0.00 0.37 97 981.3
20260906014556 72 186 0.0 0.9 0.00 0.00 0.37 97 981.3
20260906014056 72 62 0.0 0.9 0.00 0.00 0.37 97 981.3
20260906013557 72 145 0.9 0.9 0.00 0.00 0.37 97 981.4
20260906013057 72 140 1.7 2.6 0.00 0.00 0.37 97 981.1
20260906012557 72 199 0.0 0.9 0.00 0.00 0.37 97 981.0
20260906012102 72 169 0.9 1.7 0.00 0.00 0.37 97 981.2
20260906011556 72 215 0.9 1.7 0.00 0.00 0.37 97 981.3
20260906011057 72 202 0.0 0.9 0.00 0.00 0.37 97 981.2
20260906010601 72 147 0.0 0.9 0.00 0.00 0.37 97 981.0
20260906010056 72 191 0.0 0.9 0.00 0.00 0.37 97 980.8
20260906005556 72 93 0.9 1.7 0.00 0.00 0.37 96 980.6
20260906005056 72 105 0.0 0.0 0.00 0.00 0.37 96 980.5
20260906004556 72 209 0.9 1.7 0.00 0.00 0.37 96 980.3
20260906004101 72 89 0.0 1.7 0.00 0.00 0.37 96 980.3
20260906003556 72 147 0.0 1.7 0.00 0.00 0.37 96 980.4
20260906003101 72 89 0.0 1.7 0.00 0.00 0.37 96 980.3
20260906002556 72 115 1.7 3.5 0.00 0.00 0.37 96 980.6
20260906002056 72 173 0.0 0.9 0.00 0.00 0.37 95 980.2
20260906001601 72 2 1.7 1.7 0.02 0.00 0.37 95 980.0
20260906001056 72 327 1.7 3.5 0.02 0.00 0.37 95 979.9
20260906000556 72 174 0.0 1.7 0.00 0.00 0.37 95 980.0
20260906000056 73 278 1.7 2.6 0.02 0.00 0.37 94 980.1
20260905235556 72 346 2.6 5.2 0.07 0.00 0.37 94 980.2
20260905235056 73 318 3.5 3.5 0.14 0.00 0.36 95 980.4
20260905234556 73 130 2.6 3.5 0.42 0.00 0.35 95 980.6
20260905234056 73 304 2.6 6.1 0.90 0.00 0.33 94 980.9
20260905233557 74 230 3.5 6.1 1.32 0.00 0.26 93 980.6
20260905233101 75 113 5.2 9.6 0.97 0.00 0.16 88 980.6
20260905232556 80 331 2.6 6.1 0.14 0.00 0.02 78 981.3
20260905232056 84 50 6.1 7.0 0.00 0.00 0.00 65 980.5
20260905231555 88 21 2.6 6.1 0.00 0.00 0.00 58 980.0
20260905231056 89 331 1.7 2.6 0.00 0.00 0.00 65 979.3
20260905230556 90 239 1.7 3.5 0.00 0.00 0.00 65 978.9
20260905230056 90 289 3.5 4.3 0.00 0.00 0.00 64 978.7
20260905225555 90 253 1.7 3.5 0.00 0.00 0.00 64 978.9
20260905225055 90 269 0.0 3.5 0.00 0.00 0.00 63 978.9
20260905224556 91 240 3.5 4.3 0.00 0.00 0.00 63 979.0
20260905224101 91 310 1.7 4.3 0.00 0.00 0.00 61 978.7
20260905223555 92 287 2.6 6.1 0.00 0.00 0.00 60 979.0
20260905223056 92 269 0.0 2.6 0.00 0.00 0.00 59 978.7
20260905222555 93 250 0.9 2.6 0.00 0.00 0.00 59 978.6
20260905222056 93 230 2.6 3.5 0.00 0.00 0.00 59 978.8
20260905221601 95 277 1.7 3.5 0.00 0.00 0.00 56 978.7
20260905221056 95 320 3.5 4.3 0.00 0.00 0.00 55 978.8
20260905220556 96 190 0.9 2.6 0.00 0.00 0.00 52 978.6
20260905220101 96 183 1.7 2.6 0.00 0.00 0.00 53 978.5
20260905215556 98 220 0.9 4.3 0.00 0.00 0.00 49 978.8
20260905215055 98 245 1.7 1.7 0.00 0.00 0.00 42 978.5
20260905214557 99 230 1.7 3.5 0.00 0.00 0.00 41 978.4
20260905214056 99 251 2.6 2.6 0.00 0.00 0.00 43 978.5
20260905213556 100 257 0.0 4.3 0.00 0.00 0.00 40 978.5
20260905213057 101 263 2.6 2.6 0.00 0.00 0.00 40 978.5
20260905212556 101 188 0.0 1.7 0.00 0.00 0.00 41 978.5
20260905212056 100 215 0.9 2.6 0.00 0.00 0.00 39 978.5
20260905211556 100 274 1.7 2.6 0.00 0.00 0.00 43 978.7
20260905211101 99 203 2.6 3.5 0.00 0.00 0.00 42 978.7
20260905210601 98 185 1.7 3.5 0.00 0.00 0.00 41 978.7
20260905210056 100 265 1.7 2.6 0.00 0.00 0.00 39 978.8
20260905205556 99 265 0.0 3.5 0.00 0.00 0.00 42 978.7
20260905205056 99 257 1.7 2.6 0.00 0.00 0.00 43 978.7
20260905204557 100 278 3.5 3.5 0.00 0.00 0.00 42 978.9
20260905204056 99 209 0.9 3.5 0.00 0.00 0.00 41 978.8
20260905203557 99 234 1.7 2.6 0.00 0.00 0.00 42 978.9
20260905203056 98 253 3.5 3.5 0.00 0.00 0.00 43 979.4
20260905202557 99 277 1.7 2.6 0.00 0.00 0.00 46 979.6
20260905202101 98 235 1.7 3.5 0.00 0.00 0.00 45 979.3
20260905201556 99 277 1.7 3.5 0.00 0.00 0.00 41 979.5
20260905201056 97 219 0.0 2.6 0.00 0.00 0.00 43 979.5
20260905200556 97 203 1.7 1.7 0.00 0.00 0.00 46 979.6
20260905200056 96 200 1.7 1.7 0.00 0.00 0.00 47 979.7
20260905195556 98 264 2.6 3.5 0.00 0.00 0.00 44 980.0
20260905195056 98 215 1.7 2.6 0.00 0.00 0.00 43 980.0
20260905194556 98 206 1.7 2.6 0.00 0.00 0.00 45 980.0
20260905194057 98 136 2.6 3.5 0.00 0.00 0.00 43 980.1
20260905193556 98 246 0.9 5.2 0.00 0.00 0.00 44 980.2
20260905193057 97 169 0.0 1.7 0.00 0.00 0.00 46 980.1
20260905192557 96 266 1.7 2.6 0.00 0.00 0.00 47 980.2
20260905192056 94 224 0.9 2.6 0.00 0.00 0.00 49 980.4
20260905191556 95 218 2.6 3.5 0.00 0.00 0.00 47 980.3
20260905191056 95 208 0.0 1.7 0.00 0.00 0.00 49 980.3
20260905190556 95 194 1.7 2.6 0.00 0.00 0.00 51 980.4
20260905190056 95 127 1.7 2.6 0.00 0.00 0.00 46 980.2
20260905185556 93 138 3.5 3.5 0.00 0.00 0.00 50 980.5
20260905185056 93 165 1.7 1.7 0.00 0.00 0.00 55 980.5
20260905184556 94 171 1.7 1.7 0.00 0.00 0.00 50 980.5
20260905184056 95 172 0.9 1.7 0.00 0.00 0.00 47 980.5
20260905183601 96 134 2.6 2.6 0.00 0.00 0.00 45 980.7
20260905183101 96 89 0.0 4.3 0.00 0.00 0.00 46 980.8
20260905182556 97 139 2.6 2.6 0.00 0.00 0.00 46 981.0
20260905182056 96 344 0.9 1.7 0.00 0.00 0.00 45 981.0
20260905181557 96 283 3.5 4.3 0.00 0.00 0.00 44 981.1
20260905181056 97 118 3.5 5.2 0.00 0.00 0.00 42 981.0
20260905180556 96 133 2.6 2.6 0.00 0.00 0.00 46 981.0
20260905180056 97 125 2.6 7.8 0.00 0.00 0.00 45 981.2
20260905175601 96 296 1.7 3.5 0.00 0.00 0.00 47 981.2
20260905175056 95 307 0.0 3.5 0.00 0.00 0.00 49 981.0
20260905174601 95 118 2.6 4.3 0.00 0.00 0.00 48 981.2
20260905174056 95 91 0.9 4.3 0.00 0.00 0.00 48 981.4
20260905173556 95 75 0.9 2.6 0.00 0.00 0.00 47 981.4
20260905173101 95 171 2.6 3.5 0.00 0.00 0.00 49 981.6
20260905172601 95 111 1.7 5.2 0.00 0.00 0.00 48 981.5
20260905172056 95 311 0.0 0.9 0.00 0.00 0.00 50 981.7
20260905171556 95 112 1.7 6.1 0.00 0.00 0.00 49 981.8
20260905171056 95 172 0.9 3.5 0.00 0.00 0.00 48 981.8
20260905170601 94 207 3.5 5.2 0.00 0.00 0.00 50 981.7
20260905170056 94 62 0.0 3.5 0.00 0.00 0.00 51 981.8
20260905165556 93 150 0.9 3.5 0.00 0.00 0.00 51 981.7
20260905165056 94 108 2.6 5.2 0.00 0.00 0.00 50 981.9
20260905164601 94 170 1.7 1.7 0.00 0.00 0.00 51 981.9
20260905164056 93 127 3.5 5.2 0.00 0.00 0.00 52 981.9
20260905163555 93 72 0.0 7.8 0.00 0.00 0.00 51 982.2
20260905163056 94 118 1.7 4.3 0.00 0.00 0.00 52 982.2
20260905162555 92 198 0.9 3.5 0.00 0.00 0.00 55 982.1
20260905162055 92 96 0.0 2.6 0.00 0.00 0.00 54 982.4
20260905161556 92 262 0.9 2.6 0.00 0.00 0.00 55 982.5
20260905161056 92 131 2.6 5.2 0.00 0.00 0.00 55 982.5
20260905160555 91 283 0.0 1.7 0.00 0.00 0.00 55 982.7
20260905160055 91 122 2.6 3.5 0.00 0.00 0.00 56 982.5
20260905155601 91 271 0.9 2.6 0.00 0.00 0.00 56 982.8
20260905155055 91 152 1.7 5.2 0.00 0.00 0.00 56 982.7
20260905154556 91 316 0.9 3.5 0.00 0.00 0.00 56 982.7
20260905154056 90 139 1.7 2.6 0.00 0.00 0.00 57 982.6
20260905153556 91 186 1.7 3.5 0.00 0.00 0.00 57 982.7
20260905153056 90 115 0.9 4.3 0.00 0.00 0.00 57 982.9
20260905152555 90 202 0.0 1.7 0.00 0.00 0.00 57 982.9
20260905152056 90 115 4.3 5.2 0.00 0.00 0.00 58 982.7
20260905151556 90 126 0.0 4.3 0.00 0.00 0.00 59 982.8
20260905151056 90 112 1.7 4.3 0.00 0.00 0.00 57 982.8
20260905150556 89 111 2.6 4.3 0.00 0.00 0.00 59 982.8
20260905150055 89 182 1.7 1.7 0.00 0.00 0.00 58 982.9
20260905145555 89 310 0.9 5.2 0.00 0.00 0.00 60 983.0
20260905145056 88 133 3.5 3.5 0.00 0.00 0.00 61 983.0
20260905144556 88 284 0.0 1.7 0.00 0.00 0.00 60 983.1
20260905144056 88 136 1.7 3.5 0.00 0.00 0.00 64 983.1
20260905143556 88 119 2.6 5.2 0.00 0.00 0.00 61 983.0
20260905143101 88 235 0.0 1.7 0.00 0.00 0.00 64 983.1
20260905142556 87 192 0.9 1.7 0.00 0.00 0.00 66 983.2
20260905142056 86 120 1.7 2.6 0.00 0.00 0.00 70 983.1
20260905141556 85 231 1.7 1.7 0.00 0.00 0.00 66 983.2
20260905141056 85 240 1.7 1.7 0.00 0.00 0.00 66 983.2
20260905140556 85 320 0.0 1.7 0.00 0.00 0.00 65 983.1
20260905140056 85 225 1.7 2.6 0.00 0.00 0.00 70 983.0
20260905135555 85 252 0.0 1.7 0.00 0.00 0.00 70 983.2
20260905135056 84 200 0.9 2.6 0.00 0.00 0.00 69 983.1
20260905134557 84 276 1.7 2.6 0.00 0.00 0.00 69 983.0
20260905134056 84 211 2.6 3.5 0.00 0.00 0.00 70 983.2
20260905133556 83 232 0.9 1.7 0.00 0.00 0.00 72 983.1
20260905133056 83 224 0.9 1.7 0.00 0.00 0.00 74 983.2
20260905132556 83 252 0.9 1.7 0.00 0.00 0.00 73 983.4